[[{"header":{"parameterUnit":"m.s-1","parameterCategory":1,"la1":30.2991,"la2":30.254,"lo1":-89.0895,"lo2":-89.0444,"dy":0.0017,"dx":0.0017,"nx":28,"ny":28,"refTime":"2026-02-03T09:00:00:Z","depth":0,"parameterNumber":2,"parameterNumberName":"U-component_of_WINDS"},"data":[0,0,0,0,0,0,0,0,0,0,0,0,0,0,0,0,0,0,0,0,0,0,0,0,0,0,0,0,0,0,0,0,0,0,0,0,0,0,0,0,0,0,0,0,0,0,0,0,0,0,0,0,0,0,0,0,0,0,0.5578,0.5578,0,0.5588,0.5588,0.5588,0.5612,0.5612,0.5613,0.5613,0.5624,0.5624,0.5623,0,0,0,0,0,0,0,0,0,0,0,0,0,0.5581,0.558,0.5578,0.5578,0.5578,0.5588,0.5588,0.5588,0.5612,0.5612,0.5613,0.5613,0.5624,0.5624,0.5623,0,0,0,0,0,0,0,0,0,0,0,0,0,0.5584,0.558,0.5578,0.5591,0.5592,0.5588,0.5588,0.5588,0.5611,0.5612,0.5613,0.5614,0.5624,0.5624,0.5623,0.5607,0,0,0.5622,0.5622,0,0,0,0,0,0,0,0,0.5584,0.5584,0.5589,0.559,0.5592,0.5599,0.5593,0.5594,0.5611,0.5604,0.5613,0.5614,0.5615,0.5615,0.5616,0.5607,0.5608,0.5622,0.5622,0.5622,0.5622,0,0,0,0,0,0,0,0.5583,0.5583,0.5582,0.5589,0.5591,0.5597,0.5598,0.5593,0.5605,0.5605,0.5607,0.5607,0.5616,0.5616,0.5616,0.5608,0.5622,0.5622,0.5622,0.5622,0.5588,0.5587,0,0,0,0,0,0,0.5581,0.5583,0.5581,0.5582,0.5589,0.5596,0.5598,0.5596,0.5605,0.5608,0.5607,0.5608,0.5616,0.5616,0.5617,0.5599,0.5622,0.5622,0.5622,0.5588,0.5588,0.5587,0,0,0,0,0,0,0.5581,0.5581,0.5581,0.5583,0.5583,0.5595,0.5593,0.5596,0.5596,0.5607,0.5609,0.5605,0.5617,0.5617,0.5609,0.56,0.5622,0.5622,0.5589,0.5588,0.5587,0.5563,0,0,0,0,0,0,0.5581,0.558,0.5574,0.5583,0.5583,0.5573,0.5593,0.5595,0.5595,0.5598,0.5605,0.5607,0.5617,0.561,0.5609,0.56,0.5621,0.559,0.5589,0.5588,0.5565,0.5561,0.5558,0,0,0,0,0,0.5581,0.5567,0.5574,0.5573,0.5575,0.5573,0.5573,0.5584,0.5594,0.5588,0.5596,0.5607,0.5601,0.5609,0.5608,0.5599,0.5591,0.5589,0.5588,0.5566,0.5562,0.5558,0,0,0,0,0,0,0.5557,0.5568,0.5576,0.5564,0.5567,0.5577,0.5569,0.5579,0.558,0.5582,0.5596,0.5598,0.5589,0.5593,0.5601,0.5584,0.5598,0.5596,0.5582,0.5578,0.5574,0.5574,0.5621,0,0,0,0,0,0.555,0.5546,0.5556,0.5545,0.5546,0.5557,0.5556,0.5565,0.5569,0.557,0.5577,0.5581,0.558,0.5579,0.5578,0.5565,0.5568,0.5558,0.5555,0.5552,0.5551,0.5546,0.5542,0.5581,0.5581,0.5581,0,0,0.5536,0.5542,0.5538,0.554,0.5544,0.554,0.5558,0.5553,0.5551,0.557,0.5563,0.5568,0.5573,0.5563,0.5559,0.5566,0.554,0.555,0.5548,0.5548,0.5544,0.554,0.5536,0.558,0.558,0.558,0,0,0.5509,0.5512,0.5504,0.5507,0.5512,0.552,0.5517,0.5526,0.553,0.5523,0.5537,0.5535,0.5532,0.5536,0.5537,0.5512,0.5523,0.5511,0.5495,0.5489,0.5486,0.5484,0.5476,0.5473,0.551,0.551,0.551,0,0.5491,0.5486,0.5498,0.5493,0.5493,0.551,0.5502,0.5504,0.5509,0.5509,0.5517,0.5515,0.552,0.5511,0.5505,0.5505,0.5504,0.5511,0.5486,0.5483,0.5481,0.5474,0.5471,0.5508,0.5509,0.5509,0.5509,0,0.5464,0.5461,0.5453,0.5457,0.5457,0.545,0.5462,0.546,0.5469,0.5476,0.547,0.5476,0.5477,0.5476,0.5484,0.5469,0.5473,0.5483,0.5498,0.5476,0.5469,0.5467,0.5506,0.5507,0.5507,0.5508,0,0,0.5423,0.5434,0.5431,0.5434,0.5441,0.5439,0.5433,0.5434,0.5433,0.5436,0.5432,0.543,0.5439,0.5441,0.545,0.5445,0.5426,0.5456,0.5456,0.5451,0.5412,0.5405,0.5402,0.5433,0.5433,0.5432,0.5412,0,0.5398,0.5389,0.54,0.5389,0.5386,0.5402,0.5397,0.5401,0.5408,0.5407,0.5414,0.5413,0.5425,0.5426,0.5422,0.5429,0.5419,0.5431,0.5431,0.5431,0.5431,0.5398,0.5391,0.5371,0.5409,0.5409,0.5408,0,0.5369,0.537,0.5359,0.5368,0.5367,0.5362,0.5365,0.5364,0.5369,0.5374,0.5376,0.5387,0.5383,0.5396,0.5391,0.5399,0.5399,0.5403,0.5403,0.5404,0.5419,0.54,0.5365,0.5362,0.5404,0.5405,0.5405,0,0.5341,0.534,0.5334,0.5335,0.5345,0.5342,0.5345,0.5351,0.5352,0.5354,0.5355,0.5357,0.5358,0.536,0.5371,0.5379,0.5365,0.5379,0.537,0.537,0.5367,0.5367,0.5333,0.5365,0.5365,0.5365,0.5365,0,0.5313,0.5306,0.5322,0.5318,0.531,0.5323,0.5315,0.5321,0.5326,0.5324,0.5337,0.5335,0.5349,0.5349,0.5357,0.5353,0.5353,0.5358,0.536,0.5357,0.5357,0.5359,0.5361,0.5365,0.5365,0.5365,0.5365,0,0.5282,0.5292,0.5286,0.5295,0.5298,0.5292,0.5301,0.5298,0.5305,0.5302,0.5302,0.5314,0.5314,0.5325,0.5327,0.5333,0.5326,0.533,0.5324,0.5326,0.5317,0.5318,0.5283,0.528,0.5313,0.5313,0.5313,0,0.5264,0.5259,0.5268,0.5268,0.5271,0.527,0.5271,0.5283,0.5283,0.5289,0.5286,0.5287,0.5289,0.5289,0.5298,0.53,0.5306,0.5294,0.5306,0.5304,0.5307,0.5308,0.5308,0.5291,0.5291,0.529,0.529,0,0.5232,0.5238,0.5238,0.524,0.5241,0.5243,0.5247,0.5246,0.5259,0.5259,0.5259,0.5261,0.5264,0.5265,0.5269,0.5274,0.5285,0.5286,0.5284,0.5282,0.5279,0.5282,0.5318,0.5287,0.5287,0.5287,0.5288,0.5288,0.5208,0.5205,0.5211,0.5211,0.5215,0.5218,0.5216,0.5223,0.5224,0.5227,0.5234,0.5234,0.524,0.5247,0.525,0.5251,0.5257,0.5254,0.5254,0.5253,0.5252,0.5278,0.5251,0.5252,0.5252,0.5252,0.5252,0,0.5178,0.5183,0.5183,0.5187,0.5188,0.5197,0.5202,0.5202,0.5201,0.5206,0.5208,0.5209,0.5211,0.522,0.5223,0.5221,0.5227,0.5222,0.5223,0.5224,0.5246,0.5247,0.5218,0.5218,0.5218,0.5218,0.5218,0.5218,0.5162,0.5158,0.5164,0.5161,0.5166,0.5166,0.5168,0.5171,0.5175,0.5176,0.5177,0.5183,0.519,0.5194,0.5196,0.5199,0.52,0.5194,0.5199,0.5219,0.5222,0.5225,0.5227,0.5194,0.5194,0.5177,0.5177,0.5177]},{"header":{"parameterUnit":"m.s-1","parameterCategory":1,"la1":30.2991,"la2":30.254,"lo1":-89.0895,"lo2":-89.0444,"dy":0.0017,"dx":0.0017,"nx":28,"ny":28,"refTime":"2026-02-03T09:00:00:Z","depth":0,"parameterNumber":3,"parameterNumberName":"V-component_of_WINDS"},"data":[0,0,0,0,0,0,0,0,0,0,0,0,0,0,0,0,0,0,0,0,0,0,0,0,0,0,0,0,0,0,0,0,0,0,0,0,0,0,0,0,0,0,0,0,0,0,0,0,0,0,0,0,0,0,0,0,0,0,4.1361,4.136,0,4.1238,4.1237,4.1235,4.1189,4.1189,4.119,4.119,4.106,4.1057,4.1053,0,0,0,0,0,0,0,0,0,0,0,0,0,4.1555,4.1552,4.1361,4.136,4.1358,4.1238,4.1237,4.1235,4.1189,4.119,4.119,4.119,4.1062,4.1057,4.1052,0,0,0,0,0,0,0,0,0,0,0,0,0,4.1455,4.1551,4.1362,4.1321,4.1316,4.1239,4.1237,4.1234,4.1189,4.119,4.119,4.1191,4.1063,4.1057,4.1052,4.1004,0,0,4.1034,4.1032,0,0,0,0,0,0,0,0,4.1461,4.1448,4.1328,4.1324,4.1318,4.123,4.1257,4.1157,4.1189,4.1237,4.119,4.1191,4.1116,4.1106,4.1081,4.0998,4.0993,4.1034,4.103,4.1028,4.1026,0,0,0,0,0,0,0,4.1468,4.1453,4.1312,4.1327,4.132,4.1308,4.1295,4.1238,4.1174,4.1233,4.1229,4.1216,4.1113,4.1087,4.1078,4.0991,4.1034,4.1029,4.1025,4.1023,4.0866,4.0865,0,0,0,0,0,0,4.1482,4.1459,4.1316,4.1309,4.1393,4.1304,4.1289,4.1257,4.1175,4.1163,4.1215,4.1214,4.1096,4.1085,4.1073,4.1014,4.1028,4.1022,4.1019,4.0867,4.0866,4.0865,0,0,0,0,0,0,4.1486,4.147,4.1321,4.1383,4.1363,4.13,4.1265,4.1255,4.1228,4.1162,4.115,4.12,4.1096,4.1081,4.1023,4.1009,4.102,4.1015,4.0867,4.0866,4.0865,4.0894,0,0,0,0,0,0,4.1492,4.1471,4.1453,4.1383,4.136,4.1273,4.1264,4.1252,4.1219,4.1216,4.1144,4.1133,4.1096,4.1032,4.1017,4.1001,4.101,4.0868,4.0867,4.0866,4.0894,4.0894,4.0894,0,0,0,0,0,4.1499,4.1464,4.1452,4.1435,4.1336,4.1273,4.1259,4.1218,4.1218,4.1199,4.1157,4.1135,4.1013,4.1026,4.1009,4.0991,4.0869,4.0867,4.0866,4.0894,4.0894,4.0894,0,0,0,0,0,0,4.1532,4.1454,4.144,4.1382,4.1335,4.1265,4.1239,4.1219,4.1169,4.1169,4.1119,4.1103,4.1049,4.1014,4.103,4.0942,4.094,4.0935,4.0967,4.0966,4.0966,4.0975,4.1005,0,0,0,0,0,4.1533,4.1489,4.1423,4.1378,4.1355,4.1302,4.1272,4.1246,4.1194,4.1173,4.1126,4.1076,4.1027,4.0995,4.0945,4.0889,4.0874,4.0869,4.0869,4.0869,4.0865,4.0835,4.0833,4.0859,4.0859,4.086,0,0,4.1533,4.1485,4.146,4.1384,4.1344,4.1299,4.1285,4.1237,4.1204,4.1165,4.1108,4.1072,4.1013,4.0957,4.0929,4.0926,4.0855,4.0867,4.0868,4.0863,4.0833,4.0831,4.0829,4.0858,4.0859,4.0859,0,0,4.1511,4.147,4.1429,4.1391,4.1332,4.1297,4.1288,4.1222,4.1197,4.1139,4.111,4.107,4.0985,4.0945,4.0913,4.0881,4.086,4.0866,4.0865,4.0837,4.0835,4.0833,4.0822,4.0818,4.0862,4.0862,4.0862,0,4.1518,4.1451,4.141,4.1366,4.1333,4.1299,4.1258,4.1222,4.1149,4.1127,4.1125,4.102,4.0978,4.0913,4.0905,4.0881,4.0868,4.0873,4.0839,4.0836,4.0833,4.0823,4.0819,4.0864,4.0863,4.0863,4.0863,0,4.1463,4.1417,4.1391,4.1325,4.129,4.1246,4.12,4.1169,4.1146,4.1112,4.1055,4.1003,4.0944,4.0927,4.0902,4.0859,4.0859,4.0848,4.0844,4.0833,4.0822,4.0817,4.0865,4.0865,4.0864,4.0864,0,0,4.1455,4.137,4.1361,4.1332,4.1266,4.1229,4.1186,4.113,4.1105,4.1057,4.1019,4.095,4.0941,4.0906,4.0877,4.0852,4.0832,4.0845,4.0843,4.0845,4.0782,4.079,4.0785,4.0818,4.0817,4.0817,4.0787,0,4.1424,4.1346,4.1311,4.1248,4.1206,4.1175,4.1137,4.1093,4.106,4.1019,4.0983,4.0936,4.0927,4.0906,4.088,4.084,4.0818,4.0841,4.0782,4.0781,4.0798,4.0779,4.0787,4.0761,4.0782,4.0781,4.0781,0,4.1377,4.1332,4.1267,4.1209,4.119,4.1156,4.1104,4.1065,4.1015,4.0993,4.0956,4.0929,4.0883,4.0884,4.082,4.0836,4.0811,4.0788,4.0786,4.0778,4.078,4.0771,4.0752,4.0748,4.0773,4.0774,4.0775,0,4.1379,4.1302,4.1253,4.1229,4.116,4.1138,4.1108,4.1058,4.1028,4.0982,4.0962,4.091,4.0882,4.0843,4.0804,4.0808,4.0744,4.0741,4.0725,4.0726,4.0711,4.0712,4.0687,4.0696,4.0696,4.0696,4.0696,0,4.1349,4.1309,4.1254,4.1223,4.1179,4.1139,4.1097,4.1064,4.1021,4.0984,4.0954,4.092,4.087,4.083,4.0799,4.0752,4.0739,4.072,4.0712,4.0722,4.0725,4.0704,4.0705,4.0695,4.0695,4.0695,4.0695,0,4.1342,4.1303,4.1248,4.1189,4.1173,4.1144,4.1092,4.1062,4.103,4.0984,4.0971,4.092,4.0871,4.0829,4.0764,4.0743,4.0695,4.0685,4.0712,4.0708,4.0694,4.0696,4.0654,4.0647,4.066,4.066,4.066,0,4.1325,4.1295,4.1234,4.1208,4.1179,4.1137,4.1107,4.1068,4.1037,4.098,4.0957,4.0907,4.0865,4.0789,4.0745,4.0697,4.0685,4.0674,4.0677,4.069,4.0686,4.0688,4.0685,4.0674,4.0674,4.0674,4.0674,0,4.1299,4.1282,4.124,4.1193,4.1159,4.1119,4.1078,4.1059,4.1011,4.0979,4.093,4.0898,4.0834,4.0785,4.0732,4.07,4.0679,4.0674,4.0668,4.0677,4.0695,4.0686,4.0712,4.0675,4.0674,4.0674,4.0674,4.0674,4.1286,4.1259,4.1213,4.1168,4.1134,4.1098,4.1068,4.1033,4.0992,4.0938,4.0917,4.0868,4.0821,4.0748,4.0717,4.0678,4.0674,4.0665,4.0662,4.066,4.0663,4.0702,4.0668,4.0668,4.0668,4.0668,4.0668,0,4.1259,4.1229,4.1189,4.1134,4.11,4.1086,4.1041,4.1013,4.097,4.0929,4.0889,4.0834,4.0787,4.0742,4.0693,4.067,4.066,4.0659,4.066,4.0653,4.0668,4.0679,4.0668,4.0669,4.0669,4.0669,4.0669,4.0669,4.1241,4.1195,4.1173,4.111,4.108,4.1033,4.1008,4.0975,4.0942,4.0883,4.0845,4.0816,4.0773,4.0722,4.0678,4.0666,4.065,4.0651,4.0637,4.0651,4.0652,4.0652,4.0662,4.0648,4.0648,4.0625,4.0625,4.0624]}]]